BTN219 VNKT-VQPR

Flight info

Callsign BTN219
Flight time 0h 40m
Altitude 33000
Route IGRIS1D KIMTI G348 SUBSU DCT TAKTI DCT PRO
Aircraft A20N/M-SDE2E3FGHIRWXY/LB1

Departure

Time 2026-05-08 06:17
Airport Tribhuvan International Airport (VNKT)

Arrival

Time 2026-05-08 06:57
Airport Paro International Airport (VQPR)
Time Latitude Longitude Altitude Speed Heading
2026-05-08 06:01 27.69937 85.35811 4397 ft 0 kts 292°
2026-05-08 06:09 27.69935 85.35818 4397 ft 2 kts 291°
2026-05-08 06:09 27.69929 85.35835 4397 ft 2 kts 291°
2026-05-08 06:09 27.69923 85.35852 4397 ft 2 kts 290°
2026-05-08 06:09 27.69917 85.35870 4397 ft 2 kts 288°
2026-05-08 06:10 27.69913 85.35888 4397 ft 2 kts 280°
2026-05-08 06:10 27.69912 85.35906 4397 ft 2 kts 233°
2026-05-08 06:10 27.69920 85.35915 4397 ft 1 kts 203°
2026-05-08 06:10 27.69921 85.35915 4397 ft 0 kts 203°
2026-05-08 06:12 27.69908 85.35909 4397 ft 5 kts 203°
2026-05-08 06:12 27.69859 85.35885 4397 ft 10 kts 200°
2026-05-08 06:12 27.69789 85.35854 4397 ft 12 kts 202°
2026-05-08 06:12 27.69704 85.35816 4397 ft 14 kts 202°
2026-05-08 06:13 27.69612 85.35773 4397 ft 15 kts 201°
2026-05-08 06:13 27.69507 85.35727 4396 ft 17 kts 201°
2026-05-08 06:13 27.69386 85.35670 4394 ft 20 kts 202°
2026-05-08 06:13 27.69251 85.35610 4392 ft 22 kts 201°
2026-05-08 06:14 27.69118 85.35550 4385 ft 11 kts 197°
2026-05-08 06:14 27.69065 85.35588 4390 ft 9 kts 126°
2026-05-08 06:14 27.69017 85.35620 4391 ft 8 kts 183°
2026-05-08 06:14 27.68957 85.35596 4391 ft 10 kts 202°
2026-05-08 06:15 27.68887 85.35564 4391 ft 12 kts 203°
2026-05-08 06:15 27.68786 85.35516 4390 ft 21 kts 202°
2026-05-08 06:15 27.68628 85.35445 4393 ft 25 kts 202°
2026-05-08 06:15 27.68485 85.35379 4395 ft 11 kts 211°
2026-05-08 06:16 27.68437 85.35315 4396 ft 11 kts 198°
2026-05-08 06:16 27.68412 85.35350 4397 ft 6 kts 51°
2026-05-08 06:16 27.68456 85.35367 4396 ft 9 kts 22°
2026-05-08 06:16 27.68623 85.35445 4393 ft 57 kts 22°
2026-05-08 06:17 27.70134 85.36129 4398 ft 166 kts 21°
2026-05-08 06:17 27.71265 85.36614 4863 ft 175 kts 23°
2026-05-08 06:17 27.72445 85.37122 5430 ft 186 kts 22°
2026-05-08 06:18 27.73613 85.37758 6075 ft 192 kts 37°
2026-05-08 06:18 27.74491 85.38931 6558 ft 205 kts 70°
2026-05-08 06:18 27.74628 85.40572 6903 ft 222 kts 102°
2026-05-08 06:18 27.74330 85.42358 7253 ft 242 kts 101°
2026-05-08 06:19 27.73832 85.44206 7882 ft 247 kts 118°
2026-05-08 06:19 27.72835 85.45770 8731 ft 247 kts 137°
2026-05-08 06:19 27.71405 85.46828 9569 ft 249 kts 156°
2026-05-08 06:19 27.69756 85.47599 10104 ft 267 kts 157°
2026-05-08 06:20 27.67968 85.48438 10423 ft 290 kts 154°
2026-05-08 06:20 27.66167 85.49650 10710 ft 313 kts 142°
2026-05-08 06:20 27.64548 85.51411 11021 ft 334 kts 129°
2026-05-08 06:20 27.63299 85.53650 11701 ft 341 kts 115°
2026-05-08 06:21 27.62500 85.56189 12543 ft 345 kts 107°
2026-05-08 06:21 27.61809 85.58802 13340 ft 350 kts 107°
2026-05-08 06:21 27.61102 85.61414 14071 ft 356 kts 107°
2026-05-08 06:21 27.60375 85.64106 14755 ft 361 kts 107°
2026-05-08 06:22 27.59642 85.66831 15435 ft 366 kts 107°
2026-05-08 06:22 27.58838 85.69563 16115 ft 370 kts 112°
2026-05-08 06:22 27.57745 85.72214 16763 ft 374 kts 117°
2026-05-08 06:22 27.56620 85.74750 17382 ft 379 kts 117°
2026-05-08 06:23 27.55433 85.77429 18023 ft 384 kts 117°
2026-05-08 06:23 27.54249 85.80108 18621 ft 389 kts 117°
2026-05-08 06:23 27.53038 85.82856 19145 ft 394 kts 117°
2026-05-08 06:23 27.51980 85.85718 19707 ft 399 kts 109°
2026-05-08 06:24 27.51296 85.88721 20243 ft 404 kts 101°
2026-05-08 06:24 27.50986 85.91896 20762 ft 410 kts 93°
2026-05-08 06:24 27.50884 85.95122 21280 ft 415 kts 93°
2026-05-08 06:24 27.50765 85.98391 21792 ft 420 kts 93°
2026-05-08 06:25 27.50638 86.01710 22300 ft 425 kts 93°
2026-05-08 06:25 27.50508 86.05059 22822 ft 430 kts 93°
2026-05-08 06:25 27.50378 86.08443 23323 ft 435 kts 93°
2026-05-08 06:25 27.50246 86.11866 23817 ft 440 kts 94°
2026-05-08 06:26 27.50113 86.15322 24286 ft 443 kts 94°
2026-05-08 06:26 27.49980 86.18765 24712 ft 448 kts 94°
2026-05-08 06:26 27.49845 86.22285 25156 ft 451 kts 94°
2026-05-08 06:26 27.49690 86.25699 25584 ft 455 kts 97°
2026-05-08 06:27 27.49218 86.29227 26035 ft 456 kts 104°
2026-05-08 06:27 27.48534 86.32730 26436 ft 460 kts 104°
2026-05-08 06:27 27.47852 86.36271 26853 ft 464 kts 104°
2026-05-08 06:27 27.47169 86.39839 27244 ft 468 kts 104°
2026-05-08 06:28 27.46480 86.43434 27612 ft 472 kts 104°
2026-05-08 06:28 27.45792 86.47015 27986 ft 475 kts 104°
2026-05-08 06:28 27.45320 86.49475 28253 ft 476 kts 105°
2026-05-08 06:28 27.44553 86.53453 28582 ft 481 kts 105°
2026-05-08 06:29 27.43839 86.57152 28919 ft 483 kts 105°
2026-05-08 06:29 27.43124 86.60855 29218 ft 486 kts 105°
2026-05-08 06:29 27.42401 86.64590 29488 ft 491 kts 105°
2026-05-08 06:29 27.41670 86.68355 29843 ft 492 kts 105°
2026-05-08 06:30 27.40940 86.72124 30148 ft 496 kts 105°
2026-05-08 06:30 27.40198 86.75939 30415 ft 500 kts 105°
2026-05-08 06:30 27.39452 86.79772 30706 ft 502 kts 105°
2026-05-08 06:30 27.38702 86.83623 30993 ft 505 kts 106°
2026-05-08 06:31 27.37954 86.87454 31203 ft 510 kts 106°
2026-05-08 06:31 27.37195 86.91341 31598 ft 510 kts 106°
2026-05-08 06:31 27.36429 86.95258 31962 ft 510 kts 106°
2026-05-08 06:31 27.35663 86.99162 32255 ft 511 kts 107°
2026-05-08 06:32 27.34897 87.03069 32581 ft 512 kts 107°
2026-05-08 06:32 27.34131 87.06967 32969 ft 509 kts 107°
2026-05-08 06:32 27.33362 87.10868 33130 ft 511 kts 107°
2026-05-08 06:32 27.32585 87.14716 33145 ft 508 kts 110°
2026-05-08 06:33 27.30124 87.22075 33144 ft 498 kts 123°
2026-05-08 06:33 27.26589 87.28713 33140 ft 495 kts 128°
2026-05-08 06:34 27.22969 87.35281 33127 ft 492 kts 128°
2026-05-08 06:34 27.19356 87.41830 33110 ft 495 kts 128°
2026-05-08 06:35 27.15746 87.48369 33115 ft 491 kts 129°
2026-05-08 06:35 27.12119 87.54916 33107 ft 495 kts 128°
2026-05-08 06:36 27.08478 87.61485 33095 ft 494 kts 129°
2026-05-08 06:36 27.04844 87.68029 33091 ft 494 kts 129°
2026-05-08 06:37 27.01205 87.74573 33085 ft 495 kts 129°
2026-05-08 06:37 26.97575 87.81092 33077 ft 495 kts 129°
2026-05-08 06:38 26.93913 87.87660 33075 ft 497 kts 129°
2026-05-08 06:38 26.90238 87.94246 33047 ft 496 kts 129°
2026-05-08 06:39 26.86592 88.00763 33041 ft 498 kts 129°
2026-05-08 06:39 26.82912 88.07333 33019 ft 498 kts 129°
2026-05-08 06:40 26.79224 88.13909 33000 ft 499 kts 130°
2026-05-08 06:40 26.75538 88.20485 32574 ft 497 kts 129°
2026-05-08 06:41 26.73718 88.23770 31869 ft 499 kts 128°
2026-05-08 06:41 26.72492 88.26450 31244 ft 508 kts 118°
2026-05-08 06:41 26.71444 88.30255 30661 ft 512 kts 106°
2026-05-08 06:41 26.71048 88.34219 30067 ft 515 kts 93°
2026-05-08 06:42 26.71332 88.38219 29436 ft 513 kts 81°
2026-05-08 06:42 26.72274 88.42035 28877 ft 508 kts 69°
2026-05-08 06:42 26.73833 88.45556 28318 ft 502 kts 57°
2026-05-08 06:42 26.75921 88.48643 27735 ft 495 kts 47°
2026-05-08 06:43 26.77878 88.51080 27240 ft 491 kts 47°
2026-05-08 06:43 26.80067 88.54008 26660 ft 486 kts 51°
2026-05-08 06:43 26.82055 88.57040 26122 ft 482 kts 55°
2026-05-08 06:43 26.83909 88.60167 25526 ft 479 kts 57°
2026-05-08 06:44 26.85654 88.63280 24938 ft 476 kts 58°
2026-05-08 06:44 26.87373 88.66425 24402 ft 472 kts 58°
2026-05-08 06:44 26.89077 88.69566 23851 ft 469 kts 58°
2026-05-08 06:44 26.90767 88.72682 23243 ft 465 kts 58°
2026-05-08 06:45 26.92436 88.75759 22690 ft 459 kts 58°
2026-05-08 06:45 26.94088 88.78800 22149 ft 454 kts 58°
2026-05-08 06:45 26.95721 88.81805 21592 ft 449 kts 58°
2026-05-08 06:45 26.97220 88.84841 21054 ft 443 kts 66°
2026-05-08 06:46 26.98237 88.88076 20518 ft 437 kts 77°
2026-05-08 06:46 26.98744 88.91406 19974 ft 431 kts 85°
2026-05-08 06:46 26.99081 88.94724 19423 ft 427 kts 84°
2026-05-08 06:46 26.99427 88.98016 18916 ft 422 kts 84°
2026-05-08 06:47 26.99771 89.01274 18368 ft 418 kts 84°
2026-05-08 06:47 27.00107 89.04450 17837 ft 411 kts 84°
2026-05-08 06:47 27.00441 89.07621 17114 ft 410 kts 84°
2026-05-08 06:47 27.00773 89.10786 16585 ft 404 kts 84°
2026-05-08 06:48 27.01096 89.13862 16094 ft 389 kts 84°
2026-05-08 06:48 27.01406 89.16825 15602 ft 376 kts 84°
2026-05-08 06:48 27.01705 89.19704 15144 ft 369 kts 84°
2026-05-08 06:48 27.01929 89.21873 14788 ft 366 kts 84°
2026-05-08 06:49 27.02221 89.24699 14342 ft 364 kts 84°
2026-05-08 06:49 27.02511 89.27506 14091 ft 361 kts 84°
2026-05-08 06:49 27.02801 89.30324 14075 ft 366 kts 84°
2026-05-08 06:49 27.03093 89.33172 14078 ft 366 kts 84°
2026-05-08 06:50 27.03381 89.35973 14071 ft 367 kts 84°
2026-05-08 06:50 27.03673 89.38813 14065 ft 367 kts 84°
2026-05-08 06:50 27.03964 89.41659 14071 ft 367 kts 84°
2026-05-08 06:50 27.04256 89.44511 14063 ft 367 kts 83°
2026-05-08 06:51 27.04894 89.47264 13914 ft 365 kts 65°
2026-05-08 06:51 27.06323 89.49585 13883 ft 363 kts 44°
2026-05-08 06:51 27.08388 89.51218 13899 ft 365 kts 24°
2026-05-08 06:51 27.10815 89.51959 13905 ft 363 kts
2026-05-08 06:52 27.12486 89.51966 13895 ft 360 kts 355°
2026-05-08 06:52 27.15728 89.51535 13766 ft 344 kts 352°
2026-05-08 06:52 27.18038 89.51233 13569 ft 323 kts 355°
2026-05-08 06:52 27.20215 89.51148 13337 ft 304 kts
2026-05-08 06:53 27.21593 89.51242 13143 ft 293 kts
2026-05-08 06:53 27.23533 89.51650 12822 ft 276 kts 14°
2026-05-08 06:53 27.25340 89.52200 12468 ft 262 kts 15°
2026-05-08 06:53 27.27052 89.52745 12130 ft 249 kts 15°
2026-05-08 06:54 27.28668 89.53264 11876 ft 232 kts 15°
2026-05-08 06:54 27.30203 89.53542 11389 ft 218 kts 358°
2026-05-08 06:54 27.31630 89.53206 11026 ft 204 kts 335°
2026-05-08 06:54 27.32731 89.52274 10634 ft 195 kts 307°
2026-05-08 06:55 27.33229 89.50955 10372 ft 178 kts 275°
2026-05-08 06:55 27.33105 89.49623 10006 ft 169 kts 259°
2026-05-08 06:55 27.33233 89.48332 9596 ft 168 kts 290°
2026-05-08 06:55 27.33939 89.47296 9108 ft 169 kts 322°
2026-05-08 06:56 27.34984 89.46752 8696 ft 165 kts 341°
2026-05-08 06:56 27.36052 89.46394 8435 ft 154 kts 342°
2026-05-08 06:56 27.37045 89.45949 8281 ft 158 kts 326°
2026-05-08 06:56 27.37810 89.45060 8140 ft 158 kts 297°
2026-05-08 06:57 27.38267 89.43971 7788 ft 156 kts 303°
2026-05-08 06:57 27.39161 89.43200 7471 ft 169 kts 332°
2026-05-08 06:57 27.40165 89.42566 7337 ft 150 kts 331°
2026-05-08 06:57 27.40804 89.42167 7361 ft 39 kts 330°
2026-05-08 06:58 27.41009 89.42035 7367 ft 35 kts 329°
2026-05-08 06:58 27.41116 89.41966 7369 ft 1 kts 330°
2026-05-08 06:58 27.41143 89.41948 7371 ft 8 kts 330°
2026-05-08 06:58 27.41182 89.41902 7373 ft 7 kts 320°
2026-05-08 06:59 27.41197 89.41912 7371 ft 2 kts 64°
2026-05-08 06:59 27.41189 89.41919 7373 ft 4 kts 147°
2026-05-08 06:59 27.41118 89.41966 7369 ft 18 kts 150°
2026-05-08 06:59 27.41002 89.42041 7367 ft 21 kts 151°
2026-05-08 07:00 27.40887 89.42113 7363 ft 14 kts 151°
2026-05-08 07:00 27.40832 89.42098 7361 ft 9 kts 233°
2026-05-08 07:00 27.40776 89.42079 7360 ft 10 kts 154°
2026-05-08 07:00 27.40704 89.42126 7358 ft 13 kts 150°
2026-05-08 07:01 27.40614 89.42182 7354 ft 14 kts 150°
2026-05-08 07:01 27.40561 89.42204 7353 ft 6 kts 193°
2026-05-08 07:01 27.40537 89.42167 7354 ft 4 kts 239°
2026-05-08 07:01 27.40536 89.42164 7354 ft 0 kts 240°